Saint Paul, MN

5:19 AM CDT on August 27, 2016 (GMT -0500)
Saint Paul Downtown-Holman

Weather History for KSTP - November, 2012

Change the Weather History Date:

Monday, November 12, 2012

  Actual Average Record
Temperature  
Mean Temperature 22 °F -  
Max Temperature 26 °F 41 °F 64 °F (2001)
Min Temperature 19 °F 27 °F 10 °F (1996)
Degree Days  
Heating Degree Days 42    
Moisture  
Dew Point 15 °F    
Average Humidity 72    
Maximum Humidity 86    
Minimum Humidity 58    
Precipitation  
Precipitation 0.01 in - - ()
Sea Level Pressure  
Sea Level Pressure 30.08 in    
Wind  
Wind Speed 13 mph (West)    
Max Wind Speed 21 mph    
Max Gust Speed 28 mph    
Visibility 8 miles    
Events Fog , Snow    
Averages and records for this station are not official NWS values.
T = Trace of Precipitation, MM = Missing Value Source: NWS Daily Summary

Daily Weather History Graph

Daily Weather History Graph

Search for Another Location

Airport or City:

Trip Planner

Search our weather history database for the weather conditions in past years. The results will help you decide how hot, cold, wet, or windy it might be!

Date:

Astronomy

Nov. 12, 2012 Rise Set
Actual Time 7:06 AM CST 4:46 PM CST
Civil Twilight 6:34 AM CST 5:17 PM CST
Nautical Twilight 5:59 AM CST 5:52 PM CST
Astronomical Twilight 5:24 AM CST 6:27 PM CST
Moon 5:30 AM CST (11/12) 3:52 PM CST (11/12)
Length of Visible Light 10h 42m
Length of Day
9h 39m
Waning Crescent, 2% of the Moon is Illuminated
Nov 12
Waning Crescent
Nov 13
New
Nov 20
First Quarter
Nov 28
Full
Dec 6
Last Quarter

Hourly Weather History & Observations

Time (CST) Temp. Windchill Dew Point Humidity Pressure Visibility Wind Dir Wind Speed Gust Speed Precip Events Conditions
12:53 AM 21.9 °F 8.2 °F 10.0 °F 60% 29.98 in 10.0 mi West 16.1 mph 24.2 mph 0.00 in   Overcast
1:53 AM 23.0 °F 9.2 °F 10.9 °F 60% 29.98 in 10.0 mi West 17.3 mph 23.0 mph N/A   Overcast
2:53 AM 21.9 °F 8.2 °F 9.0 °F 58% 29.99 in 10.0 mi WSW 16.1 mph 23.0 mph 0.00 in   Overcast
3:53 AM 21.0 °F 7.6 °F 10.9 °F 65% 29.99 in 10.0 mi WSW 15.0 mph 25.3 mph N/A   Overcast
4:46 AM 21.2 °F 10.1 °F 12.2 °F 68% 29.97 in 9.0 mi WSW 10.4 mph - 0.00 in   Overcast
4:53 AM 21.0 °F 8.6 °F 12.0 °F 68% 30.00 in 10.0 mi WSW 12.7 mph 17.3 mph 0.00 in   Overcast
5:23 AM 19.4 °F 8.6 °F 12.2 °F 74% 29.97 in 10.0 mi SW 9.2 mph - N/A   Scattered Clouds
5:53 AM 21.0 °F 10.6 °F 12.9 °F 71% 29.99 in 10.0 mi SW 9.2 mph - N/A   Overcast
6:35 AM 21.2 °F 11.7 °F 14.0 °F 74% 29.97 in 4.0 mi WSW 8.1 mph - N/A Snow Light Snow
6:44 AM 21.2 °F 8.3 °F 15.8 °F 80% 29.97 in 2.5 mi WSW 13.8 mph 18.4 mph 0.00 in Snow Light Snow
6:53 AM 21.0 °F 8.6 °F 15.1 °F 78% 30.00 in 2.0 mi WSW 12.7 mph - 0.00 in Snow Light Snow
7:10 AM 21.2 °F 10.9 °F 15.8 °F 80% 29.97 in 4.0 mi SW 9.2 mph - 0.00 in Snow Light Snow
7:25 AM 21.2 °F 8.9 °F 15.8 °F 80% 29.98 in 2.0 mi SW 12.7 mph - 0.00 in Snow Light Snow
7:41 AM 21.2 °F 8.9 °F 15.8 °F 80% 29.98 in 1.2 mi SW 12.7 mph - 0.00 in Snow Light Snow
7:44 AM 21.2 °F 10.9 °F 15.8 °F 80% 29.98 in 0.8 mi WSW 9.2 mph - 0.00 in Snow Light Snow
7:53 AM 21.0 °F 11.4 °F 17.1 °F 85% 30.01 in 0.2 mi West 8.1 mph - 0.00 in Fog , Snow Heavy Snow
8:07 AM 21.2 °F 13.6 °F 17.6 °F 86% 29.99 in 0.2 mi West 5.8 mph - 0.00 in Fog , Snow Snow
8:37 AM 21.2 °F 12.6 °F 17.6 °F 86% 29.99 in 1.2 mi West 6.9 mph - 0.01 in Snow Light Snow
8:39 AM 21.2 °F 13.6 °F 17.6 °F 86% 29.99 in 2.5 mi West 5.8 mph - 0.01 in Snow Light Snow
8:42 AM 21.2 °F 9.5 °F 17.6 °F 86% 29.99 in 7.0 mi West 11.5 mph 18.4 mph 0.01 in   Overcast
8:53 AM 23.0 °F 9.2 °F 14.0 °F 68% 30.02 in 10.0 mi West 17.3 mph 21.9 mph 0.01 in   Overcast
9:53 AM 23.0 °F 9.2 °F 14.0 °F 68% 30.05 in 10.0 mi West 17.3 mph 26.5 mph N/A   Overcast
10:53 AM 24.1 °F 10.6 °F 15.1 °F 69% 30.06 in 5.0 mi West 17.3 mph - 0.00 in Snow Light Snow
11:53 AM 24.1 °F 11.5 °F 14.0 °F 65% 30.07 in 10.0 mi West 15.0 mph - 0.00 in   Overcast
12:53 PM 25.0 °F 11.7 °F 17.1 °F 72% 30.08 in 10.0 mi West 17.3 mph 23.0 mph N/A   Overcast
1:00 PM 24.8 °F 11.9 °F 15.8 °F 69% 30.05 in 10.0 mi West 16.1 mph 23.0 mph N/A   Overcast
1:53 PM 26.1 °F 13.6 °F 15.1 °F 63% 30.10 in 10.0 mi West 16.1 mph 25.3 mph N/A   Overcast
2:53 PM 26.1 °F 13.6 °F 16.0 °F 66% 30.12 in 10.0 mi West 16.1 mph - N/A   Overcast
3:53 PM 26.1 °F 12.0 °F 15.1 °F 63% 30.15 in 10.0 mi West 20.7 mph 27.6 mph N/A   Overcast
4:53 PM 26.1 °F 16.8 °F 16.0 °F 66% 30.18 in 10.0 mi West 9.2 mph 20.7 mph N/A   Overcast
5:53 PM 25.0 °F 12.6 °F 15.1 °F 66% 30.21 in 10.0 mi WNW 15.0 mph - N/A   Mostly Cloudy
6:53 PM 24.8 °F 14.0 °F 15.8 °F 69% 30.21 in 10.0 mi WNW 11.5 mph - N/A   Scattered Clouds
7:53 PM 24.1 °F 13.1 °F 15.1 °F 69% 30.27 in 10.0 mi West 11.5 mph - N/A   Scattered Clouds
8:00 PM 24.8 °F 14.0 °F 15.8 °F 69% 30.24 in 10.0 mi WNW 11.5 mph 19.6 mph N/A   Overcast
8:53 PM 23.0 °F 11.7 °F 15.1 °F 72% 30.29 in 10.0 mi WNW 11.5 mph - N/A   Mostly Cloudy
9:53 PM 24.1 °F 13.1 °F 15.1 °F 69% 30.30 in 10.0 mi West 11.5 mph - N/A   Overcast
10:53 PM 24.1 °F 15.2 °F 16.0 °F 71% 30.32 in 10.0 mi West 8.1 mph - N/A   Overcast
11:42 PM 21.2 °F 12.6 °F 15.8 °F 80% 30.30 in 10.0 mi WSW 6.9 mph - N/A   Scattered Clouds
11:53 PM 21.0 °F 14.6 °F 15.1 °F 78% 30.33 in 10.0 mi West 4.6 mph - N/A   Partly Cloudy